• în România
  • Lista ţărilor
  • Pe 7 zile
  • Temperatura apei
  • Hartă satelitară
  • Meteo pe hartă
  • Widget-uri
  • user-avatar
    Intrare

    Meteo pe oră la Gavrilova Polyana

    Astăzi, 20 Iulie, Vineri

    Timp Temperatura Precipitaţii Vânt Presiune Umiditate
    00:00 +23°C° 0,1 mm 1 m/s 749 mmHg 73%
    01:00 +22°C° 0,1 mm 1 m/s 749 mmHg 75%
    02:00 +22°C° 0,1 mm 1 m/s 749 mmHg 77%
    03:00 +21°C° 0,1 mm 1 m/s 749 mmHg 78%
    04:00 +22°C° 0 mm 1 m/s 749 mmHg 78%
    05:00 +23°C° 0 mm 1 m/s 749 mmHg 77%
    06:00 +24°C° 0 mm 1 m/s 749 mmHg 77%
    07:00 +25°C° 0 mm 1 m/s 749 mmHg 71%
    08:00 +27°C° 0 mm 1 m/s 749 mmHg 66%
    09:00 +28°C° 0 mm 2 m/s 749 mmHg 63%
    10:00 +29°C° 0,2 mm 2 m/s 749 mmHg 61%
    11:00 +30°C° 0,2 mm 2 m/s 749 mmHg 58%
    12:00 +31°C° 0,2 mm 3 m/s 749 mmHg 56%
    13:00 +31°C° 0,1 mm 3 m/s 749 mmHg 55%
    14:00 +31°C° 0,1 mm 3 m/s 749 mmHg 55%
    15:00 +33°C° 0,1 mm 3 m/s 749 mmHg 54%
    16:00 +30°C° 0,8 mm 3 m/s 749 mmHg 61%
    17:00 +29°C° 0,8 mm 3 m/s 749 mmHg 67%
    18:00 +28°C° 0,8 mm 3 m/s 749 mmHg 74%
    19:00 +26°C° 0,5 mm 3 m/s 749 mmHg 78%
    20:00 +25°C° 0,5 mm 3 m/s 749 mmHg 82%
    21:00 +24°C° 0,5 mm 3 m/s 749 mmHg 86%
    22:00 +22°C° 0,2 mm 3 m/s 749 mmHg 86%
    23:00 +23°C° 0,2 mm 2 m/s 749 mmHg 87%

    Mâine, 21 Iulie, Sâmbătă

    Timp Temperatura Precipitaţii Vânt Presiune Umiditate
    00:00 +23°C° 0,2 mm 2 m/s 749 mmHg 88%
    01:00 +21°C° 0,3 mm 2 m/s 749 mmHg 89%
    02:00 +21°C° 0,3 mm 2 m/s 749 mmHg 89%
    03:00 +21°C° 0,3 mm 2 m/s 749 mmHg 90%
    04:00 +21°C° 0 mm 2 m/s 749 mmHg 89%
    05:00 +23°C° 0 mm 2 m/s 749 mmHg 88%
    06:00 +23°C° 0 mm 2 m/s 749 mmHg 87%
    07:00 +24°C° 0,8 mm 2 m/s 749 mmHg 82%
    08:00 +25°C° 0,8 mm 3 m/s 749 mmHg 77%
    09:00 +26°C° 0,8 mm 3 m/s 749 mmHg 73%
    10:00 +26°C° 0,9 mm 4 m/s 749 mmHg 72%
    11:00 +26°C° 0,9 mm 4 m/s 749 mmHg 72%
    12:00 +27°C° 0,9 mm 4 m/s 749 mmHg 71%
    13:00 +26°C° 0,6 mm 4 m/s 749 mmHg 75%
    14:00 +25°C° 0,6 mm 4 m/s 749 mmHg 78%
    15:00 +23°C° 0,6 mm 4 m/s 749 mmHg 82%
    16:00 +23°C° 0,2 mm 4 m/s 749 mmHg 83%
    17:00 +22°C° 0,2 mm 4 m/s 749 mmHg 85%
    18:00 +22°C° 0,2 mm 4 m/s 749 mmHg 87%
    19:00 +21°C° 0 mm 4 m/s 749 mmHg 89%
    20:00 +21°C° 0 mm 5 m/s 749 mmHg 90%
    21:00 +20°C° 0 mm 5 m/s 749 mmHg 92%
    22:00 +20°C° 0,1 mm 5 m/s 749 mmHg 91%
    23:00 +19°C° 0,1 mm 6 m/s 750 mmHg 91%

    Poimâine, 22 Iulie, Duminică

    Timp Temperatura Precipitaţii Vânt Presiune Umiditate
    00:00 +19°C° 0,1 mm 6 m/s 750 mmHg 90%
    01:00 +17°C° 0 mm 6 m/s 750 mmHg 90%
    02:00 +17°C° 0 mm 5 m/s 750 mmHg 90%
    03:00 +17°C° 0 mm 5 m/s 749 mmHg 89%
    04:00 +17°C° 0 mm 6 m/s 750 mmHg 88%
    05:00 +17°C° 0 mm 6 m/s 750 mmHg 87%
    06:00 +17°C° 0 mm 7 m/s 750 mmHg 85%
    07:00 +18°C° 0 mm 7 m/s 750 mmHg 82%
    08:00 +20°C° 0 mm 7 m/s 750 mmHg 79%
    09:00 +21°C° 0 mm 7 m/s 751 mmHg 76%
    10:00 +22°C° 0 mm 7 m/s 751 mmHg 75%
    11:00 +22°C° 0 mm 7 m/s 751 mmHg 74%
    12:00 +22°C° 0 mm 7 m/s 751 mmHg 73%
    13:00 +22°C° 0 mm 6 m/s 751 mmHg 72%
    14:00 +23°C° 0 mm 6 m/s 751 mmHg 72%
    15:00 +23°C° 0 mm 6 m/s 751 mmHg 71%
    16:00 +23°C° 0 mm 6 m/s 751 mmHg 71%
    17:00 +23°C° 0 mm 5 m/s 751 mmHg 72%
    18:00 +23°C° 0 mm 5 m/s 751 mmHg 73%
    19:00 +22°C° 0 mm 5 m/s 751 mmHg 71%
    20:00 +22°C° 0 mm 5 m/s 752 mmHg 70%
    21:00 +21°C° 0 mm 6 m/s 752 mmHg 68%
    22:00 +20°C° 0 mm 6 m/s 752 mmHg 68%
    23:00 +20°C° 0 mm 6 m/s 752 mmHg 68%

    23 Iulie, Luni

    Timp Temperatura Precipitaţii Vânt Presiune Umiditate
    00:00 +19°C° 0 mm 5 m/s 753 mmHg 68%
    01:00 +17°C° 0 mm 6 m/s 753 mmHg 67%
    02:00 +17°C° 0 mm 6 m/s 753 mmHg 66%
    03:00 +16°C° 0 mm 6 m/s 753 mmHg 65%
    04:00 +16°C° 0 mm 6 m/s 754 mmHg 67%
    05:00 +16°C° 0 mm 6 m/s 754 mmHg 68%
    06:00 +16°C° 0 mm 6 m/s 754 mmHg 70%
    07:00 +17°C° 0 mm 6 m/s 755 mmHg 68%
    08:00 +19°C° 0 mm 6 m/s 755 mmHg 66%
    09:00 +20°C° 0 mm 6 m/s 755 mmHg 64%
    10:00 +21°C° 0 mm 6 m/s 755 mmHg 61%
    11:00 +22°C° 0 mm 7 m/s 755 mmHg 58%
    12:00 +23°C° 0 mm 7 m/s 755 mmHg 56%
    13:00 +23°C° 0 mm 6 m/s 755 mmHg 55%
    14:00 +23°C° 0 mm 6 m/s 755 mmHg 55%
    15:00 +24°C° 0 mm 6 m/s 755 mmHg 54%
    16:00 +23°C° 0 mm 6 m/s 755 mmHg 58%
    17:00 +22°C° 0 mm 5 m/s 755 mmHg 61%
    18:00 +21°C° 0 mm 4 m/s 755 mmHg 64%
    19:00 +21°C° 0 mm 4 m/s 755 mmHg 65%
    20:00 +20°C° 0 mm 4 m/s 756 mmHg 66%
    21:00 +19°C° 0 mm 4 m/s 756 mmHg 67%
    22:00 +19°C° 0 mm 4 m/s 756 mmHg 66%
    23:00 +17°C° 0 mm 5 m/s 756 mmHg 66%

    24 Iulie, Marţi

    Timp Temperatura Precipitaţii Vânt Presiune Umiditate
    00:00 +17°C° 0 mm 5 m/s 756 mmHg 66%
    01:00 +17°C° 0 mm 5 m/s 756 mmHg 65%
    02:00 +18°C° 0 mm 4 m/s 756 mmHg 64%
    03:00 +17°C° 0 mm 4 m/s 756 mmHg 64%
    04:00 +17°C° 0 mm 4 m/s 756 mmHg 65%
    05:00 +16°C° 0 mm 5 m/s 757 mmHg 66%
    06:00 +16°C° 0 mm 5 m/s 757 mmHg 68%
    07:00 +19°C° 0 mm 5 m/s 757 mmHg 64%
    08:00 +21°C° 0 mm 5 m/s 757 mmHg 61%
    09:00 +22°C° 0 mm 5 m/s 757 mmHg 57%
    10:00 +23°C° 0 mm 5 m/s 757 mmHg 53%
    11:00 +25°C° 0 mm 5 m/s 757 mmHg 50%
    12:00 +27°C° 0 mm 5 m/s 757 mmHg 46%
    13:00 +27°C° 0 mm 5 m/s 757 mmHg 46%
    14:00 +27°C° 0 mm 5 m/s 757 mmHg 46%
    15:00 +27°C° 0 mm 5 m/s 757 mmHg 47%
    16:00 +26°C° 0 mm 4 m/s 757 mmHg 52%
    17:00 +26°C° 0 mm 4 m/s 757 mmHg 56%
    18:00 +25°C° 0 mm 3 m/s 757 mmHg 61%
    19:00 +22°C° 0 mm 3 m/s 757 mmHg 65%
    20:00 +21°C° 0 mm 3 m/s 757 mmHg 69%
    21:00 +19°C° 0 mm 3 m/s 757 mmHg 72%
    22:00 +18°C° 0 mm 3 m/s 757 mmHg 74%
    23:00 +18°C° 0 mm 3 m/s 758 mmHg 76%

    25 Iulie, Miercuri

    Timp Temperatura Precipitaţii Vânt Presiune Umiditate
    00:00 +17°C° 0 mm 3 m/s 758 mmHg 78%
    01:00 +17°C° 0 mm 3 m/s 758 mmHg 80%
    02:00 +16°C° 0 mm 3 m/s 758 mmHg 82%
    03:00 +16°C° 0 mm 3 m/s 758 mmHg 84%
    04:00 +17°C° 0 mm 3 m/s 758 mmHg 83%
    05:00 +18°C° 0 mm 3 m/s 758 mmHg 81%
    06:00 +19°C° 0 mm 4 m/s 759 mmHg 80%
    07:00 +21°C° 0 mm 4 m/s 759 mmHg 75%
    08:00 +23°C° 0 mm 4 m/s 759 mmHg 70%
    09:00 +25°C° 0 mm 4 m/s 759 mmHg 66%
    10:00 +27°C° 0 mm 4 m/s 759 mmHg 59%
    11:00 +28°C° 0 mm 4 m/s 759 mmHg 53%
    12:00 +29°C° 0 mm 4 m/s 759 mmHg 47%
    13:00 +29°C° 0 mm 4 m/s 758 mmHg 47%
    14:00 +29°C° 0 mm 3 m/s 758 mmHg 47%
    15:00 +30°C° 0 mm 3 m/s 758 mmHg 47%
    16:00 +29°C° 0 mm 3 m/s 758 mmHg 52%
    17:00 +28°C° 0 mm 3 m/s 758 mmHg 58%
    18:00 +27°C° 0 mm 3 m/s 758 mmHg 63%
    19:00 +26°C° 0 mm 3 m/s 758 mmHg 66%
    20:00 +25°C° 0 mm 3 m/s 758 mmHg 69%
    21:00 +22°C° 0 mm 3 m/s 758 mmHg 72%
    22:00 +22°C° 0 mm 3 m/s 758 mmHg 75%
    23:00 +21°C° 0 mm 3 m/s 758 mmHg 77%
    Arată mai mult